Terminal Aerodrome Forecast
Issued by NWS Charleston, WV

Current Version | Previous Version | Graphics & Text | Print | Product List | Glossary On
Versions: 1 2 3 4 5 6 7 8 9 10 11 12 13 14 15 16 17 18 19 20 21 22 23 24
000
FTUS41 KRLX 302300
TAFEKN
TAF
KEKN 302333Z 0100/0124 VRB05KT 5SM -SHRA OVC040
     FM010300 00000KT 5SM -SHRA BR OVC020
     FM010900 02004KT 6SM BR OVC012
     FM011200 04004KT P6SM OVC025
     FM011400 35006KT P6SM BKN035
     FM011800 33007KT P6SM -SHRA BKN025=

USA.gov is the U.S. government's official web portal to all federal, state and local government web resources and services.